[keps] orb07004.amsat

Ray Hoad r.hoad at att.net
Thu Jan 4 19:09:50 PST 2007


SB KEPS @ AMSAT  $ORB07004.O
Orbital Elements  07004.OSCAR

HR AMSAT ORBITAL ELEMENTS FOR OSCAR SATELLITES
FROM WA5QGD FORT WORTH,TX January 4, 2007
Send SUBSCRIBE KEPS/UNSUBSCRIBE KEPS to majordomo at amsat.org only
BID: ORB07004.O
TO ALL RADIO AMATEURS BT

Satellite: AO-07
Catalog number: 07530
Epoch time:      07004.69786876
Element set:     771
Inclination:      101.5414 deg
RA of node:       047.3720 deg
Eccentricity:    0.0012039
Arg of perigee:   213.7326 deg
Mean anomaly:     146.2977 deg
Mean motion:   12.53572209 rev/day
Decay rate:       -2.8e-07 rev/day^2
Epoch rev:           47063
Checksum:              297

Satellite: UO-11
Catalog number: 14781
Epoch time:      07003.98577671
Element set:     266
Inclination:      098.2005 deg
RA of node:       023.4169 deg
Eccentricity:    0.0009061
Arg of perigee:   346.7089 deg
Mean anomaly:     013.3846 deg
Mean motion:   14.79506823 rev/day
Decay rate:       -2.0e-07 rev/day^2
Epoch rev:           22545
Checksum:              301

Satellite: RS-10/11
Catalog number: 18129
Epoch time:      07004.56864199
Element set:     185
Inclination:      082.9242 deg
RA of node:       179.1972 deg
Eccentricity:    0.0010264
Arg of perigee:   255.2132 deg
Mean anomaly:     104.7885 deg
Mean motion:   13.72783059 rev/day
Decay rate:        4.0e-07 rev/day^2
Epoch rev:           97878
Checksum:              325

Satellite: RS-15
Catalog number: 23439
Epoch time:      07001.15344821
Element set:       0
Inclination:      064.8198 deg
RA of node:       277.0523 deg
Eccentricity:    0.0164150
Arg of perigee:   220.1187 deg
Mean anomaly:     138.7521 deg
Mean motion:   11.27551670 rev/day
Decay rate:       -3.9e-07 rev/day^2
Epoch rev:           49486
Checksum:              280

Satellite: FO-29
Catalog number: 24278
Epoch time:      07003.88045544
Element set:     400
Inclination:      098.5270 deg
RA of node:       345.7795 deg
Eccentricity:    0.0351023
Arg of perigee:   149.0813 deg
Mean anomaly:     213.1519 deg
Mean motion:   13.52926283 rev/day
Decay rate:       -3.7e-07 rev/day^2
Epoch rev:           51268
Checksum:              304

Satellite: SO-33
Catalog number: 25509
Epoch time:      07004.55625061
Element set:     833
Inclination:      031.4301 deg
RA of node:       070.8660 deg
Eccentricity:    0.0354705
Arg of perigee:   076.8869 deg
Mean anomaly:     287.1078 deg
Mean motion:   14.28143018 rev/day
Decay rate:        6.2e-07 rev/day^2
Epoch rev:           42784
Checksum:              298

Satellite: VO-52
Catalog number: 28650
Epoch time:      07004.36757033
Element set:     521
Inclination:      097.8528 deg
RA of node:       078.6118 deg
Eccentricity:    0.0028312
Arg of perigee:   068.0722 deg
Mean anomaly:     292.3560 deg
Mean motion:   14.81245463 rev/day
Decay rate:       4.76e-06 rev/day^2
Epoch rev:            9016
Checksum:              300

/EX
SB KEPS @ AMSAT  $ORB07004.D
Orbital Elements  07004.MICROS

HR AMSAT ORBITAL ELEMENTS FOR THE MICROSATS
FROM WA5QGD FORT WORTH,TX January 4, 2007
Send SUBSCRIBE KEPS/UNSUBSCRIBE KEPS to majordomo at amsat.org only
BID: ORB07004.D
TO ALL RADIO AMATEURS BT

Satellite: AO-16
Catalog number: 20439
Epoch time:      07004.14089922
Element set:     934
Inclination:      098.1889 deg
RA of node:       007.8020 deg
Eccentricity:    0.0010500
Arg of perigee:   320.5734 deg
Mean anomaly:     039.4690 deg
Mean motion:   14.31746267 rev/day
Decay rate:        4.0e-07 rev/day^2
Epoch rev:           88507
Checksum:              292

Satellite: LO-19
Catalog number: 20442
Epoch time:      07003.99729773
Element set:     865
Inclination:      098.1809 deg
RA of node:       017.1709 deg
Eccentricity:    0.0011488
Arg of perigee:   319.6394 deg
Mean anomaly:     040.3959 deg
Mean motion:   14.31987968 rev/day
Decay rate:        6.2e-07 rev/day^2
Epoch rev:           88519
Checksum:              357

Satellite: AO-27
Catalog number: 22825
Epoch time:      07003.95631129
Element set:     584
Inclination:      098.3084 deg
RA of node:       341.1940 deg
Eccentricity:    0.0009111
Arg of perigee:   032.5315 deg
Mean anomaly:     327.6429 deg
Mean motion:   14.29195843 rev/day
Decay rate:        5.6e-07 rev/day^2
Epoch rev:           69203
Checksum:              297

Satellite: IO-26
Catalog number: 22826
Epoch time:      07003.82184137
Element set:     278
Inclination:      098.3021 deg
RA of node:       342.2043 deg
Eccentricity:    0.0009664
Arg of perigee:   029.7105 deg
Mean anomaly:     330.4619 deg
Mean motion:   14.29440878 rev/day
Decay rate:        2.8e-07 rev/day^2
Epoch rev:           69209
Checksum:              299

Satellite: PO-28
Catalog number: 22829
Epoch time:      07004.83757093
Element set:     561
Inclination:      098.2911 deg
RA of node:       344.3600 deg
Eccentricity:    0.0009913
Arg of perigee:   002.4252 deg
Mean anomaly:     357.6969 deg
Mean motion:   14.30138484 rev/day
Decay rate:       -2.4e-07 rev/day^2
Epoch rev:           69246
Checksum:              311

Satellite: GO-32
Catalog number: 25397
Epoch time:      07003.92047058
Element set:     197
Inclination:      098.4416 deg
RA of node:       058.1199 deg
Eccentricity:    0.0001410
Arg of perigee:   029.3350 deg
Mean anomaly:     330.7920 deg
Mean motion:   14.23117220 rev/day
Decay rate:      -1.18e-06 rev/day^2
Epoch rev:           44079
Checksum:              278

Satellite: MO-46
Catalog number: 26548
Epoch time:      07004.39837545
Element set:     688
Inclination:      064.5585 deg
RA of node:       329.3512 deg
Eccentricity:    0.0033832
Arg of perigee:   218.9534 deg
Mean anomaly:     140.9151 deg
Mean motion:   14.83080343 rev/day
Decay rate:       1.65e-06 rev/day^2
Epoch rev:           33924
Checksum:              319

Satellite: NO-44
Catalog number: 26931
Epoch time:      07004.57671536
Element set:     489
Inclination:      067.0508 deg
RA of node:       208.9356 deg
Eccentricity:    0.0004983
Arg of perigee:   277.8356 deg
Mean anomaly:     082.2197 deg
Mean motion:   14.29468339 rev/day
Decay rate:       1.37e-06 rev/day^2
Epoch rev:           27471
Checksum:              342

Satellite: SO-50
Catalog number: 27607
Epoch time:      07003.96752035
Element set:     209
Inclination:      064.5583 deg
RA of node:       223.5997 deg
Eccentricity:    0.0037068
Arg of perigee:   058.0032 deg
Mean anomaly:     302.4654 deg
Mean motion:   14.71215100 rev/day
Decay rate:        5.2e-07 rev/day^2
Epoch rev:           21696
Checksum:              283

Satellite: CO-55
Catalog number: 27844
Epoch time:      07003.42160543
Element set:     930
Inclination:      098.7210 deg
RA of node:       013.9683 deg
Eccentricity:    0.0009552
Arg of perigee:   202.0587 deg
Mean anomaly:     158.0206 deg
Mean motion:   14.20482898 rev/day
Decay rate:        5.5e-07 rev/day^2
Epoch rev:           18208
Checksum:              292

Satellite: CO-57
Catalog number: 27848
Epoch time:      07003.98496189
Element set:     894
Inclination:      098.7182 deg
RA of node:       013.7813 deg
Eccentricity:    0.0009250
Arg of perigee:   205.6539 deg
Mean anomaly:     154.4215 deg
Mean motion:   14.20306347 rev/day
Decay rate:        5.5e-07 rev/day^2
Epoch rev:           18214
Checksum:              319

Satellite: AO-51
Catalog number: 28375
Epoch time:      07003.18860198
Element set:     714
Inclination:      098.1371 deg
RA of node:       050.8091 deg
Eccentricity:    0.0084305
Arg of perigee:   323.0773 deg
Mean anomaly:     036.4631 deg
Mean motion:   14.40550327 rev/day
Decay rate:        3.6e-07 rev/day^2
Epoch rev:           13195
Checksum:              284

Satellite: CO-56
Catalog number: 28941
Epoch time:      07004.14203837
Element set:     314
Inclination:      098.1562 deg
RA of node:       047.6476 deg
Eccentricity:    0.0251474
Arg of perigee:   130.8832 deg
Mean anomaly:     231.4495 deg
Mean motion:   15.32966429 rev/day
Decay rate:     3.0911e-04 rev/day^2
Epoch rev:            4824
Checksum:              310

Satellite: HO-59
Catalog number: 29484
Epoch time:      07004.81887150
Element set:     140
Inclination:      098.3115 deg
RA of node:       031.2425 deg
Eccentricity:    0.0254028
Arg of perigee:   126.1143 deg
Mean anomaly:     236.4265 deg
Mean motion:   15.38590971 rev/day
Decay rate:     4.0558e-04 rev/day^2
Epoch rev:            1585
Checksum:              303

Satellite: RAFT
Catalog number: 29661
Epoch time:      07003.84864620
Element set:      20
Inclination:      051.6435 deg
RA of node:       232.2918 deg
Eccentricity:    0.0014386
Arg of perigee:   073.0494 deg
Mean anomaly:     287.2094 deg
Mean motion:   15.83700201 rev/day
Decay rate:     5.1449e-04 rev/day^2
Epoch rev:             219
Checksum:              275

Satellite: ANDE
Catalog number: 29667
Epoch time:      07003.85652588
Element set:      13
Inclination:      051.6322 deg
RA of node:       232.3366 deg
Eccentricity:    0.0018150
Arg of perigee:   067.1471 deg
Mean anomaly:     293.1446 deg
Mean motion:   15.82424165 rev/day
Decay rate:     1.8909e-04 rev/day^2
Epoch rev:             193
Checksum:              290

/EX
SB KEPS @ AMSAT  $ORB07004.W
Orbital Elements  07004.WEATHER

HR AMSAT ORBITAL ELEMENTS FOR WEATHER SATELLITES
FROM WA5QGD FORT WORTH,TX January 4, 2007
Send SUBSCRIBE KEPS/UNSUBSCRIBE KEPS to majordomo at amsat.org only
BID: ORB07004.W
TO ALL RADIO AMATEURS BT

Satellite: NOAA-10
Catalog number: 16969
Epoch time:      07004.05628198
Element set:     486
Inclination:      098.7535 deg
RA of node:       021.0669 deg
Eccentricity:    0.0011731
Arg of perigee:   288.0830 deg
Mean anomaly:     071.9064 deg
Mean motion:   14.27314371 rev/day
Decay rate:        5.7e-07 rev/day^2
Epoch rev:            5581
Checksum:              305

